www.pogodaiklimat.ru

Погода и климат >> Архив погоды >> Таиланд >> Кабинбури


ПОГОДА в Кабинбури

  • Прогноз погоды в Кабинбури
  • Монитор погоды в Кабинбури

АРХИВ ПОГОДЫ в Кабинбури

Время (UTC), дата Ветер
(напр.,м/с)
 
Видим.   Явления Облачность Т
(С)
Тd
(С)
f
(%)
Тe
(С)
Тes
(С)
Комфортность P
(гПа)
Po
(гПа)
Тmin
(С)
Tmax
(С)
R
(мм)
R24
(мм)
S
(см)
00 18.03 штиль 0 8000 м дымка 3/0
[Ac und Cs]
+25.4 +24.5 95 +36 +37 очень
душно
1012.1 1010.7 +25.1
03 18.03 штиль 0 10 км 3/1 600 м
[Sc Ac und Cs]
+30.0 +25.5 77 +44 +60 опасность
перегрева
1013.2 1011.8
06 18.03 штиль 0 10 км 3/1 600 м
[Sc Ac und Cs]
+34.5 +25.4 59 +49 +70 опасность
перегрева
1010.6 1009.2
09 18.03 штиль 0 10 км 4/1 600 м
[Sc Ac und Cs]
+36.2 +25.5 54 +50 +57 опасность
перегрева
1007.2 1005.8
12 18.03 штиль 0 8000 м дымка 3/0
[Ac und Cs]
+31.2 +25.9 73 +46 +46 опасность
перегрева
1007.6 1006.2 +36.8
15 18.03 штиль 0 6000 м дымка 6/0
[Ac und Cs]
+29.2 +25.4 80 +43 +43 опасность
перегрева
1011.0 1009.6
18 18.03 штиль 0 6000 м дымка 8/0
[Ac und Cs]
+27.2 +25.2 89 +39 +39 очень
душно
1010.9 1009.4
21 18.03 штиль 0 6000 м дымка 5/0
[Ac und Cs]
+26.2 +24.8 92 +37 +37 очень
душно
1009.6 1008.1
00 19.03 штиль 0 6000 м дымка 6/0
[Cs]
+25.2 +24.2 94 +35 +36 очень
душно
1011.5 1010.0 +25.0
03 19.03 ЮЗ 2 10 км 6/1 600 м
[Cu hum Cs]
+31.5 +25.4 70 +46 +57 опасность
перегрева
1012.6 1011.2
06 19.03 З 2 11 км 8/3 600 м
[Cu Sc Cs]
+36.3 +23.8 49 +48 +60 опасность
перегрева
1009.8 1008.5
09 19.03 З 2 11 км 6/3 600 м
[Cu med, cong Cs]
+37.9 +23.0 43 +48 +52 опасность
перегрева
1006.4 1005.0
12 19.03 штиль 0 8000 м дымка 10/6 600 м
[Cu Sc Ac und Cs]
+31.0 +25.4 72 +45 +45 опасность
перегрева
1008.0 1006.6 +38.0
15 19.03 штиль 0 8000 м дымка 8/0
[Cs]
+27.1 +21.7 72 +35 +35 очень
душно
1010.3 1008.9
18 19.03 штиль 0 6000 м дымка 6/0
[Cs]
+25.0 +22.0 83 +32 +32 очень
душно
1010.4 1009.0
21 19.03 штиль 0 6000 м дымка 8/3 600 м
[Sc Ac und Cs]
+24.3 +23.1 93 +32 +32 очень
душно
1009.5 1008.1
00 20.03 штиль 0 8000 м дымка 5/0
[Ac und Cs]
+24.0 +23.3 96 +32 +33 очень
душно
1010.8 1009.4 +24.0
03 20.03 штиль 0 10 км 5/4 600 м
[Cu hum Cs]
+30.5 +25.6 75 +45 +56 опасность
перегрева
1012.3 1010.9
06 20.03 штиль 0 10 км 3/3 600 м
[Cu med, cong Cs]
+35.5 +23.5 50 +46 +65 опасность
перегрева
1009.8 1008.4
09 20.03 штиль 0 10 км 3/0
[Ac und Cs]
+37.6 +21.9 40 +45 +52 опасность
перегрева
1006.3 1005.0
12 20.03 штиль 0 9000 м мгла 1/0
[Cs]
+30.3 +22.2 62 +39 +39 очень
душно
1007.7 1006.3 +37.8
15 20.03 штиль 0 6000 м дымка ясно +28.8 +24.0 75 +40 +40 очень
душно
1010.5 1009.1
18 20.03 штиль 0 6000 м дымка ясно +26.4 +24.5 89 +37 +37 очень
душно
1010.4 1009.0
21 20.03 штиль 0 6000 м дымка ясно +26.1 +24.5 91 +37 +37 очень
душно
1009.2 1007.8
00 21.03 штиль 0 8000 м дымка 8/0
[Cs]
+25.3 +24.1 93 +35 +36 очень
душно
1011.0 1009.6 +25.0
03 21.03 штиль 0 10 км 3/0
[Cs]
+31.5 +24.7 67 +44 +63 опасность
перегрева
1012.1 1010.7
06 21.03 Ю 3 11 км 3/1 600 м
[Cu hum Cs]
+37.1 +23.2 45 +47 +62 опасность
перегрева
1009.1 1007.7
09 21.03 штиль 0 11 км 3/1 600 м
[Cu med, cong Cs]
+38.3 +22.8 41 +47 +55 опасность
перегрева
1005.8 1004.4
12 21.03 штиль 0 8000 м мгла 4/0
[Cs]
+33.0 +24.8 62 +46 +46 опасность
перегрева
1007.2 1005.8 +38.8
15 21.03 штиль 0 8000 м дымка 4/0
[Cs]
+29.8 +24.7 74 +42 +42 опасность
перегрева
1009.9 1008.5
18 21.03 штиль 0 6000 м дымка 3/0
[Ac trans Cs]
+28.0 +24.3 80 +39 +39 очень
душно
1010.3 1008.9
21 21.03 штиль 0 6000 м дымка 3/0
[Cs]
+26.1 +24.2 89 +36 +36 очень
душно
1008.9 1007.5
00 22.03 штиль 0 6000 м дымка 3/0
[Cs]
+25.3 +23.8 91 +34 +36 очень
душно
1009.6 1008.1 +25.1
03 22.03 ЮЗ 2 11 км 3/3 600 м
[Cu hum]
+31.8 +24.2 64 +44 +54 опасность
перегрева
1011.7 1010.3
06 22.03 штиль 0 11 км 3/0
[Cs]
+36.2 +24.0 50 +48 +74 опасность
перегрева
1007.5 1006.1
09 22.03 З 2 11 км 3/0
[Cs]
+38.6 +20.9 36 +45 +51 опасность
перегрева
1005.0 1003.6
12 22.03 ЮЗ 3 8000 м мгла 3/0
[Cs]
+32.5 +23.9 61 +44 +44 опасность
перегрева
1006.0 1004.7 +38.9
15 22.03 штиль 0 6000 м дымка ясно +29.5 +24.5 75 +42 +42 опасность
перегрева
1008.6 1007.2
18 22.03 штиль 0 6000 м дымка ясно +28.1 +24.2 79 +39 +39 очень
душно
1008.3 1006.9
21 22.03 штиль 0 6000 м дымка 8/5 600 м
[Sc Ac lent Cs]
+27.0 +24.5 86 +38 +38 очень
душно
1007.6 1006.2
00 23.03 штиль 0 8000 м дымка 3/0
[Ac lent Cs]
+27.0 +25.6 92 +40 +41 очень
душно
1009.0 1007.6 +27.0
03 23.03 штиль 0 10 км 3/3 600 м
[Cu hum]
+32.0 +25.7 69 +47 +61 опасность
перегрева
1011.1 1009.7
06 23.03 штиль 0 10 км 1/1 600 м
[Cu hum]
+37.8 +25.3 49 +51 +76 опасность
перегрева
1008.2 1006.8
09 23.03 З 2 10 км 3/3 600 м
[Cu hum]
+39.5 +24.0 41 +50 +55 опасность
перегрева
1004.4 1003.1
12 23.03 ЮЗ 4 8000 м мгла 3/0
[Ac lent Cs]
+33.4 +25.4 63 +48 +48 опасность
перегрева
1006.1 1004.7 +40.5
15 23.03 штиль 0 6000 м дымка 3/0
[Ac lent Cs]
+30.1 +23.4 67 +41 +41 опасность
перегрева
1008.8 1007.4
18 23.03 штиль 0 6000 м дымка ясно +27.7 +23.9 80 +38 +38 очень
душно
1008.6 1007.2
21 23.03 штиль 0 6000 м дымка ясно +26.1 +24.1 89 +36 +36 очень
душно
1008.0 1006.6
00 24.03 штиль 0 6000 м дымка 4/0
[Cs]
+26.4 +24.8 91 +38 +39 очень
душно
1010.0 1008.6 +26.0
03 24.03 штиль 0 11 км 8/4 600 м
[Sc Ac trans Cs]
+30.6 +24.8 71 +43 +52 опасность
перегрева
1011.4 1010.0
06 24.03 ЮЗ 2 11 км 8/5 600 м
[Sc Ac trans Cs]
+33.0 +25.6 65 +48 +55 опасность
перегрева
1008.5 1007.1
09 24.03 штиль 0 11 км 8/5 600 м
[Sc Ac trans Cs]
+32.1 +24.9 66 +46 +49 опасность
перегрева
1007.2 1005.8
12 24.03 штиль 0 8000 м дымка 6/4 600 м
[Sc Ac trans Cs]
+28.8 +24.2 76 +40 +40 очень
душно
1008.9 1007.5 +33.5
15 24.03 штиль 0 6000 м дымка 6/4 600 м
[Sc Ac trans Cs]
+27.0 +24.1 84 +37 +37 очень
душно
1010.1 1008.7
18 24.03 штиль 0 6000 м дымка 6/4 600 м
[Sc Ac trans Cs]
+26.5 +24.0 86 +37 +37 очень
душно
1009.7 1008.3

 

Местоположение метеостанции Кабинбури (Таиланд): широта 13.98 долгота 101.70 высота над уровнем моря 12 м.

В архиве по умолчанию представлена погода в Кабинбури за последнюю неделю. Архивные данные за месяц целиком и за предыдущие месяцы, начиная с января 2011 года, Вы можете получить, выбрав интересующий диапазон дат из раскрывающегося списка и нажав кнопку "Ввод!".


*Определитесь, кто Вы:
робот инопланетянин человек

Внимание! Время в таблицах - всемирное. Для получения местного времени необходимо прибавить поправку, которая равна 7 ч.

Смотрите также архив погоды в соседних городах и на ближайших метеорологических станциях:

Погода в Прачинбури (Таиланд) (38 км)
Погода в Сракаеве (Таиланд) (42 км)
Погода в Чаченгсау (Таиланд) (60 км)
Погода в Пакчонг Агромете (Таиланд) (83 км)
Погода в Чок Чай (Таиланд) (96 км)
Погода в Араньяпратете (Таиланд) (100 км)
Погода в Чонбури (Таиланд) (103 км)
Погода в Ратбури (Таиланд) (103 км)
Погода в Сарабури (Таиланд) (103 км)
Погода в Аэропорту Суварнабхуми (Таиланд) (107 км)

Пояснения к столбцам:

Ветер - указаны скорость ветра в м/с - средняя за 10 мин, порывы в срок и между сроками (в фигурных скобках) и направление, откуда дует ветер: С - северный, СВ - северо-восточный, В - восточный, ЮВ - юго-восточный, Ю - южный, ЮЗ - юго-западный, З - западный, СЗ - северо-западный.
Видимость - горизонтальная дальность видимости в метрах или километрах. При видимости от 1 до 10 км при отсутствии осадков обычно наблюдается дымка, при ухудшении видимости до 1 км и менее - туман. В сухую погоду видимость может ухудшаться дымом, пылью или мглою.
Явления - указаны атмосферные явления, наблюдавшиеся в срок или в последний час перед сроком; фигурными скобками обозначены явления, наблюдавшиеся между сроками (за 1-3 часа до срока); квадратными скобками обозначены град или гололедные отложения с указанием их диаметра в мм.
Облачность - указаны через наклонную черту общая и нижняя облачность в баллах и высота нижней границы облаков в метрах; квадратными скобками обозначены формы облаков: Ci - перистые, Cs - перисто-слоистые, Cc - перисто-кучевые, Ac - высококучевые, As - высокослоистые, Sc - слоисто-кучевые, Ns - слоисто-дождевые, Cu - кучевые, Cb - кучево-дождевые. Подробнее классификацию облаков см. в Атласе облаков (PDF).
T - Температура воздуха - температура, измеренная на высоте 2 м над землей.
Td - Температура точки росы - температура, при понижении до которой содержащийся в воздухе водяной пар достигнет насыщения.
f - Относительная влажность воздуха - влажноcть воздуха, измеренная на высоте 2 м над землей.
Te - Эффективная температура - температура, которую ощущает одетый по сезону человек в тени. Характеристика душности погоды. При расчете учитывается влияние влажности воздуха и скорости ветра на теплоощущения человека.
Tes - Эффективная температура на солнце - температура, которую ощущает человек, с поправкой на солнечный нагрев. Характеристика знойности погоды. Зависит от высоты солнца над горизонтом, облачности и скорости ветра. Ночью, в пасмурную погоду, а также при ветре 12 м/с и более поправка равна нулю.
P - Атмосферное давление - приведенное к уровню моря атмосферное давление.
Po - Атмосферное давление - измеренное на уровне метеостанции атмосферное давление.
Tmin - Минимальная температура - минимум температуры воздуха на высоте 2 м над землей.
Tmax - Максимальная температура - максимум температуры воздуха на высоте 2 м над землей.
R - Количество осадков - Количество выпавших осадков за период времени, мм. При наведении курсора мыши на число - период времени, за который выпало указанное количество осадков.
R24 - Количество осадков - Количество выпавших осадков за 24 часа, мм.
S - Снежный покров - Высота снежного покрова, см. При наведении курсора мыши на число - состояние снежного покрова и степень покрытия местности в баллах.